TimeHST,TemperatureF,Dew PointF,Humidity,Sea Level PressureIn,VisibilityMPH,Wind Direction,Wind SpeedMPH,Gust SpeedMPH,PrecipitationIn,Events,Conditions,WindDirDegrees,DateUTC
12:53 AM,73.0,70.0,90,30.01,7.0,East,3.5,-,0.15,Rain,Light Rain,80,2013-11-15 10:53:00
1:00 AM,73.4,69.8,88,30.00,10.0,ENE,4.6,-,0.00,Rain-Thunderstorm,Light Thunderstorms and Rain,70,2013-11-15 11:00:00
1:15 AM,73.4,69.8,88,30.00,10.0,ENE,3.5,-,0.00,Rain,Light Rain,60,2013-11-15 11:15:00
1:53 AM,73.0,71.1,93,30.00,6.0,North,3.5,-,0.04,Rain,Rain,350,2013-11-15 11:53:00
2:53 AM,72.0,71.1,97,29.98,10.0,North,4.6,-,0.16,Rain,Light Rain,350,2013-11-15 12:53:00
3:53 AM,72.0,71.1,97,29.98,9.0,NNE,3.5,-,0.02,Rain,Rain,30,2013-11-15 13:53:00
4:53 AM,72.0,70.0,93,29.98,10.0,Calm,Calm,-,0.03,,Mostly Cloudy,0,2013-11-15 14:53:00
5:53 AM,72.0,69.1,91,29.99,10.0,North,3.5,-,N/A,,Scattered Clouds,360,2013-11-15 15:53:00
6:53 AM,73.0,70.0,90,30.01,10.0,Calm,Calm,-,N/A,,Mostly Cloudy,0,2013-11-15 16:53:00
7:53 AM,73.9,71.1,91,30.01,10.0,NW,5.8,-,N/A,,Mostly Cloudy,320,2013-11-15 17:53:00
8:53 AM,77.0,71.1,82,30.04,10.0,Variable,4.6,-,N/A,,Overcast,0,2013-11-15 18:53:00
9:53 AM,79.0,71.1,77,30.05,10.0,Calm,Calm,-,N/A,,Overcast,0,2013-11-15 19:53:00
10:53 AM,80.1,71.1,74,30.04,10.0,East,4.6,-,N/A,,Mostly Cloudy,80,2013-11-15 20:53:00
11:53 AM,82.0,69.1,65,30.03,10.0,ENE,8.1,-,N/A,,Mostly Cloudy,60,2013-11-15 21:53:00
12:53 PM,82.9,70.0,65,30.01,10.0,ENE,13.8,-,N/A,,Mostly Cloudy,70,2013-11-15 22:53:00
1:53 PM,82.0,69.1,65,29.98,10.0,ENE,15.0,-,N/A,,Mostly Cloudy,60,2013-11-15 23:53:00
2:53 PM,84.0,68.0,58,29.96,10.0,ENE,10.4,21.9,N/A,,Mostly Cloudy,70,2013-11-16 00:53:00
3:53 PM,82.0,69.1,65,29.97,10.0,NE,8.1,-,N/A,,Mostly Cloudy,50,2013-11-16 01:53:00
4:35 PM,80.6,71.6,74,29.98,9.0,ESE,8.1,-,N/A,,Mostly Cloudy,120,2013-11-16 02:35:00
4:53 PM,79.0,72.0,79,29.99,9.0,ESE,8.1,-,N/A,,Mostly Cloudy,120,2013-11-16 02:53:00
5:00 PM,78.8,71.6,78,29.99,9.0,SE,4.6,-,N/A,,Overcast,130,2013-11-16 03:00:00
5:53 PM,79.0,71.1,77,30.01,10.0,Calm,Calm,-,N/A,,Mostly Cloudy,0,2013-11-16 03:53:00
6:53 PM,78.1,70.0,76,30.01,10.0,NE,3.5,-,N/A,,Mostly Cloudy,40,2013-11-16 04:53:00
7:53 PM,77.0,69.1,76,30.03,10.0,Calm,Calm,-,N/A,,Mostly Cloudy,0,2013-11-16 05:53:00
8:53 PM,75.9,69.1,79,30.03,10.0,ENE,4.6,-,N/A,,Mostly Cloudy,60,2013-11-16 06:53:00
9:53 PM,75.0,69.1,82,30.05,10.0,Calm,Calm,-,N/A,,Scattered Clouds,0,2013-11-16 07:53:00
10:53 PM,73.9,69.1,85,30.05,10.0,Calm,Calm,-,N/A,,Scattered Clouds,0,2013-11-16 08:53:00
11:53 PM,73.0,68.0,84,30.03,10.0,North,3.5,-,N/A,,Scattered Clouds,350,2013-11-16 09:53:00